Theta_e
354 356 361 361 359 359 358 355 357 358 361 359 359 358 357 358 358 354 354 353 351 349 347 346 345 343 344 344 342 342 344 347 348 349 351 354 356 359 364 363 364 363 363 362 362 361 360 359 359 359 359 356 356 356 357 357 356 356 355 354 354 354 355 355 355 355 355 354 354 354 353 353 353 352 352 353 354 354 354 354 354 353 352 352 353
354 354 358 356 357 359 357 357 357 356 356 353 360 358 353 354 355 354 353 353 351 349 351 346 345 343 344 342 342 341 340 342 343 347 353 355 354 358 364 363 363 362 362 362 362 361 361 359 359 359 359 357 355 355 356 356 355 356 355 355 355 355 355 354 355 355 355 355 355 355 354 354 354 352 352 352 353 354 354 355 354 354 354 353 353
354 357 359 357 358 362 361 361 359 360 360 358 361 359 357 355 357 352 351 350 350 351 350 346 344 343 343 341 339 341 343 340 338 343 353 354 353 357 361 364 363 362 361 361 362 362 361 361 360 359 358 355 355 356 356 354 355 356 356 356 356 356 356 355 356 356 356 356 356 356 355 355 354 354 354 353 353 354 354 355 354 354 354 354 354
354 358 358 359 361 359 360 360 361 363 362 359 361 362 359 358 358 356 353 352 349 349 350 347 345 341 341 342 339 343 342 342 339 337 351 353 353 356 358 361 363 363 362 361 362 361 362 363 362 359 358 355 355 356 355 353 353 355 356 356 356 357 356 356 356 357 356 356 356 356 356 356 356 356 355 355 355 354 354 354 355 355 354 354 354
358 361 369 359 358 358 358 359 359 360 361 362 362 361 356 353 353 357 355 352 349 348 350 343 341 341 341 342 342 343 343 340 339 340 350 354 353 354 356 360 359 363 363 363 362 362 362 363 362 359 358 357 358 357 356 354 353 354 356 356 356 355 356 356 356 357 357 356 356 356 356 356 357 357 357 356 356 355 355 355 355 355 355 355 355
365 365 363 361 359 358 357 359 358 361 362 361 359 358 355 353 351 352 357 353 348 346 346 342 341 340 340 342 343 342 344 340 340 338 343 351 354 354 355 357 357 358 360 362 363 362 362 361 360 360 358 358 358 357 355 355 356 356 356 356 355 356 355 355 355 355 356 356 356 356 356 356 357 357 357 357 356 356 356 355 355 355 356 355 355
364 362 362 362 357 355 356 358 360 359 358 358 356 357 356 353 353 351 350 349 348 348 346 343 343 340 341 346 342 343 344 340 341 340 340 342 349 352 353 353 353 356 358 358 364 362 363 360 359 359 359 358 358 357 356 355 356 357 357 357 356 356 355 354 354 355 355 356 356 356 356 356 356 356 357 357 357 357 356 356 356 356 356 355 355
365 363 360 361 357 356 356 359 361 360 358 358 357 355 354 353 354 351 346 346 349 343 343 342 341 341 343 346 341 350 340 342 339 340 341 340 344 346 350 352 353 353 359 354 356 360 363 362 360 359 359 359 358 358 357 357 357 357 356 357 356 356 355 355 354 354 355 355 356 356 356 356 356 356 356 357 357 357 357 357 357 357 357 356 356
363 364 362 360 358 360 358 358 360 358 355 355 354 353 350 352 350 353 349 344 345 345 342 339 340 339 339 337 342 345 340 343 344 346 352 343 340 342 345 349 355 363 356 353 353 356 360 362 360 359 359 357 358 357 355 356 356 356 356 357 356 356 355 354 354 354 354 354 354 354 354 354 355 356 356 356 357 357 357 357 357 357 357 357 357
362 364 362 361 358 359 357 357 359 358 355 352 351 353 352 350 348 350 350 347 344 343 339 339 340 339 336 338 341 341 341 343 345 353 342 342 340 341 343 351 350 349 351 351 351 355 357 359 361 360 359 358 358 356 357 357 357 356 356 356 356 357 356 355 353 354 354 354 353 353 354 355 355 355 355 355 354 355 355 355 356 357 357 356 357
364 363 361 361 359 360 357 358 359 357 354 352 350 351 351 350 348 347 350 351 344 341 340 341 341 341 340 340 343 345 342 345 348 343 341 340 341 344 346 344 345 348 348 350 350 351 352 352 354 353 354 360 359 358 357 357 357 357 357 355 356 356 356 355 354 354 355 354 354 353 354 354 355 356 356 355 354 354 353 354 355 355 356 357 357
362 363 363 360 358 358 359 359 358 355 352 350 347 348 349 349 348 347 346 347 349 342 341 338 341 338 344 343 344 341 340 348 343 342 346 343 342 337 337 339 340 343 347 348 349 350 352 351 355 350 352 356 356 356 356 356 357 356 356 356 356 356 355 355 354 354 354 355 355 354 354 354 355 355 356 355 355 355 354 354 354 355 354 354 357
362 361 361 364 360 360 358 358 358 355 352 350 350 350 350 350 350 350 342 339 338 343 342 338 334 335 338 339 340 342 352 348 342 339 339 340 336 333 333 332 334 338 340 344 347 349 350 349 349 349 348 350 353 355 353 353 354 355 357 357 356 355 355 354 354 354 354 354 355 355 355 354 354 355 355 355 356 355 354 354 354 355 355 355 356
364 362 362 362 360 358 356 355 355 354 353 353 351 355 352 349 347 344 343 338 335 341 343 340 335 332 331 332 337 335 344 344 339 338 339 336 334 331 332 331 331 333 341 342 342 344 345 347 347 350 348 351 349 347 350 352 352 355 355 355 356 356 356 355 355 356 356 356 355 355 355 355 355 355 355 355 355 355 355 355 355 355 355 355 354
363 365 363 362 359 355 355 354 353 356 352 350 350 349 348 345 341 338 339 341 340 343 340 335 331 335 336 330 328 329 337 337 343 342 341 331 331 330 331 330 331 332 333 333 338 339 341 342 343 347 350 351 348 348 350 354 352 354 353 353 353 353 354 355 355 355 355 355 355 355 355 355 355 355 355 355 355 355 355 355 355 355 355 355 355
363 365 364 361 357 354 356 354 354 355 351 349 348 345 345 342 340 344 338 332 336 336 342 338 339 333 326 328 329 331 327 326 332 336 336 329 330 330 331 330 330 332 330 331 336 339 340 339 338 339 347 350 349 348 348 347 352 351 351 350 348 349 352 352 353 353 354 353 353 353 354 355 355 355 356 355 355 354 354 354 354 355 355 355 355
362 361 359 360 359 356 354 355 354 353 352 349 348 345 342 339 343 341 338 337 334 337 342 341 337 338 334 330 326 326 324 329 330 331 337 330 329 329 333 328 329 333 329 331 334 335 337 338 337 338 338 347 348 347 348 347 345 346 344 345 343 344 346 349 350 350 350 350 350 350 351 352 353 354 354 354 355 354 353 353 353 353 354 354 353
360 359 359 361 359 357 355 355 353 351 351 346 345 343 339 341 341 337 336 340 338 335 336 343 341 345 338 334 330 324 325 330 328 323 334 339 332 331 330 328 331 332 330 330 334 335 338 335 336 336 336 343 347 347 346 343 345 337 333 335 341 341 342 344 346 346 345 345 346 347 348 349 350 352 352 353 354 354 354 353 353 352 351 352 353
360 359 359 360 358 356 355 353 351 350 351 349 344 341 339 341 342 343 342 346 338 332 334 335 337 339 342 339 341 341 338 328 324 327 322 327 337 327 328 330 330 331 332 329 333 329 332 335 332 333 334 339 343 343 341 342 343 341 342 340 338 338 339 340 341 341 341 342 343 344 345 345 346 347 348 348 350 352 352 353 354 354 353 352 352
359 358 357 357 355 354 353 350 349 347 349 341 339 338 341 345 344 343 344 344 340 335 334 335 333 336 338 331 337 335 336 334 337 325 323 320 323 327 326 329 329 330 332 330 329 327 330 329 326 332 330 332 339 337 337 338 337 337 339 340 338 338 338 339 339 338 338 338 340 341 342 342 342 342 343 344 346 347 348 348 350 351 351 352 353
357 356 355 356 356 353 351 349 348 346 353 343 341 344 342 341 341 340 339 339 339 341 336 334 333 333 335 334 336 334 334 335 335 334 327 321 322 323 323 330 329 327 326 328 328 331 332 331 330 335 336 334 335 335 334 334 334 335 341 340 339 337 338 337 338 339 338 336 338 339 340 340 341 341 341 342 343 343 344 344 345 346 347 350 352
355 353 354 355 353 353 351 349 348 347 349 342 341 341 340 340 341 341 340 337 337 339 333 332 336 337 339 334 333 335 328 328 328 328 330 325 320 319 322 319 320 326 330 326 329 331 329 331 335 331 333 333 330 334 335 333 333 333 338 342 340 339 338 337 338 338 338 337 336 337 338 339 339 339 340 340 340 340 341 341 341 342 343 345 346
353 352 353 353 352 353 350 349 346 349 346 342 340 340 341 340 340 340 340 340 337 340 341 342 342 339 339 336 334 334 326 328 328 326 325 327 323 324 324 326 323 325 331 331 331 330 330 330 332 329 330 334 332 334 335 334 338 336 341 343 342 341 339 338 338 338 337 336 336 335 336 337 337 338 339 339 340 340 340 339 339 340 341 341 342
352 351 351 351 352 351 350 349 347 347 342 342 348 340 341 341 340 340 339 341 338 338 334 337 336 337 334 336 334 335 333 333 332 328 324 325 321 320 322 326 328 328 336 335 336 332 333 333 331 333 332 329 333 333 335 336 337 342 342 344 343 342 341 340 339 338 338 338 337 337 336 336 336 336 337 337 338 339 338 338 338 339 339 340 339
351 349 350 350 351 349 348 346 346 347 342 343 341 341 341 340 340 340 339 338 338 338 335 337 335 335 332 334 336 332 333 331 333 334 332 331 328 322 326 327 323 327 332 333 331 335 337 335 336 337 334 333 336 336 333 334 335 342 345 344 343 342 341 341 341 341 340 340 339 339 339 338 337 336 336 337 336 336 337 338 338 338 339 339 340
351 349 350 351 351 350 350 348 346 347 344 341 339 343 343 338 342 339 338 338 339 339 337 338 337 337 338 334 332 334 334 336 335 331 332 329 326 324 327 330 329 327 329 332 335 329 330 335 337 337 338 332 332 332 332 332 333 348 347 338 342 341 341 342 342 341 340 340 340 340 340 341 340 340 339 338 338 337 337 337 337 338 338 338 338
352 350 351 349 351 350 349 350 347 346 345 343 342 341 343 341 342 339 340 339 338 339 336 337 339 338 336 334 336 335 335 335 335 336 334 333 332 331 328 324 325 326 327 327 330 328 326 330 336 334 338 337 337 336 332 331 335 343 352 341 334 341 341 341 341 341 340 340 339 339 340 340 340 340 340 340 340 339 336 337 337 337 337 338 338
352 351 349 349 350 350 349 349 347 345 345 342 341 339 341 340 342 340 339 343 339 339 337 337 337 338 336 337 337 334 335 335 335 335 335 336 336 335 332 327 322 320 324 323 324 324 332 328 330 333 336 336 336 337 339 339 336 346 351 339 334 336 341 340 340 341 340 339 339 339 338 338 340 340 341 340 339 339 339 338 337 337 338 338 338
353 351 351 350 349 349 348 348 347 345 343 342 341 341 340 340 339 340 338 340 339 339 338 335 335 337 336 337 334 334 335 341 338 338 339 336 334 334 333 331 328 322 320 320 321 322 326 330 326 330 335 336 338 339 340 337 338 344 341 338 333 333 338 339 339 339 340 340 338 338 338 337 338 339 340 341 340 341 341 340 339 338 337 337 337
354 352 349 352 350 353 348 346 346 345 343 342 340 342 341 340 339 340 338 338 337 337 339 337 336 336 339 337 334 336 339 336 335 336 336 337 336 335 335 336 333 327 325 321 321 324 325 328 328 330 335 338 339 338 336 335 341 343 338 336 335 334 338 338 338 338 339 338 337 336 336 337 337 337 338 339 341 340 340 340 339 339 339 338 338
353 352 348 350 349 349 347 346 346 344 343 341 341 342 341 339 340 338 339 338 337 335 336 337 336 338 336 337 338 338 339 337 337 337 340 338 336 338 339 338 334 331 329 326 321 324 330 325 328 333 332 335 338 336 338 337 340 343 337 335 335 338 340 338 337 336 336 336 336 336 335 335 334 335 336 337 337 338 339 339 338 338 339 337 338
353 353 349 348 349 349 347 346 345 344 343 341 341 341 341 338 339 338 338 337 336 338 336 337 337 337 336 335 335 335 336 337 335 334 335 339 338 337 338 336 335 334 332 328 324 324 330 329 330 332 333 332 333 332 331 336 339 346 338 336 335 342 339 337 339 338 336 335 335 335 334 333 333 334 335 336 336 337 338 339 338 339 338 337 336
353 352 351 349 349 348 347 346 345 343 342 341 341 341 341 338 338 338 337 337 335 335 338 336 336 335 334 333 333 333 336 334 332 333 334 336 334 334 336 335 334 335 333 329 325 325 327 331 332 332 333 334 331 332 330 331 333 336 341 336 336 335 335 334 333 337 336 335 334 334 333 333 332 333 334 335 336 336 337 337 337 336 336 336 335
354 352 351 350 349 349 347 345 344 343 342 341 340 340 340 339 338 339 337 336 336 334 335 335 335 336 335 333 333 334 338 336 336 336 335 336 334 333 334 335 333 333 334 330 327 326 324 326 331 333 333 335 330 333 331 331 332 336 334 335 337 336 335 334 334 334 336 336 335 334 333 332 332 332 333 333 334 335 335 335 335 333 334 335 334
354 353 352 351 350 349 347 345 344 343 342 342 341 340 339 339 338 338 338 336 335 335 334 333 334 335 335 335 334 335 337 333 332 332 334 334 334 331 331 334 332 332 333 332 328 326 326 326 329 329 331 333 332 332 334 335 335 335 333 333 333 335 337 335 334 335 336 336 335 334 333 332 332 331 331 331 332 332 332 332 331 331 331 331 330
353 353 353 352 350 349 347 345 344 343 342 342 341 340 339 339 338 337 337 337 335 335 335 333 333 334 332 331 333 333 334 331 331 331 333 334 333 330 329 332 332 333 332 332 330 326 326 325 327 329 331 331 332 335 336 336 334 333 333 333 333 333 333 334 334 333 335 334 334 332 332 332 330 329 329 329 328 328 328 327 328 328 327 328 327
353 352 352 352 350 349 347 345 344 343 343 342 341 340 340 339 338 338 336 337 336 336 335 334 337 334 333 331 331 333 332 330 331 331 333 333 334 333 331 331 331 331 333 333 331 331 329 328 330 332 333 332 333 334 334 333 333 332 332 331 331 331 331 332 333 334 335 334 334 333 332 331 331 330 329 328 328 327 327 327 326 325 325 324 323
352 352 351 352 351 349 348 346 345 344 343 342 341 341 340 339 338 337 337 336 336 337 336 335 335 335 333 332 333 333 332 331 331 332 333 333 333 333 332 332 333 335 333 330 330 331 329 328 329 330 331 331 330 331 333 334 332 330 329 328 329 330 331 330 331 334 335 335 333 333 333 332 331 330 330 329 328 327 326 325 326 325 323 321 319
351 350 350 352 352 351 350 348 346 344 343 343 341 340 340 339 338 336 335 335 336 336 337 337 337 335 333 333 333 334 333 332 332 332 334 334 335 333 334 333 334 335 332 331 331 329 327 325 326 328 329 331 331 330 331 333 332 330 327 325 324 327 329 329 329 332 334 334 333 333 332 332 333 332 328 326 326 326 326 325 324 323 323 321 320
353 351 350 351 352 352 351 349 347 345 343 342 342 340 340 339 338 336 335 335 335 336 336 336 336 335 334 335 336 335 334 334 334 334 335 334 334 332 333 334 334 334 333 332 331 328 325 326 326 326 326 327 327 330 331 329 326 325 327 326 324 324 324 326 329 329 330 330 329 331 332 333 332 331 329 328 329 328 325 325 327 328 326 323 321
355 354 353 352 353 352 351 349 347 345 343 343 342 341 339 339 338 337 335 335 335 336 335 336 335 335 336 336 336 336 339 342 343 341 341 342 336 332 333 335 334 333 332 332 330 327 326 325 326 327 326 326 326 326 325 324 323 322 325 325 323 324 325 325 326 328 330 329 329 329 329 330 329 327 327 327 328 330 330 331 331 331 329 324 322
354 354 353 354 354 353 351 349 347 346 344 344 338 329 333 339 338 338 336 335 335 336 336 335 334 336 337 337 338 342 343 341 342 345 341 341 340 337 334 334 333 330 329 328 326 325 324 322 322 322 322 323 323 324 323 323 324 325 323 324 323 324 324 323 324 326 329 328 326 324 325 329 328 327 326 326 328 330 328 328 327 327 326 325 325
355 354 354 354 354 353 351 349 347 346 345 343 330 327 330 333 338 338 336 335 336 336 336 334 334 334 334 335 335 340 342 342 336 340 339 336 336 336 335 335 336 332 329 327 326 326 325 323 323 323 322 322 323 324 323 324 324 323 324 323 324 323 321 319 318 322 328 327 323 321 321 324 325 322 322 322 323 323 324 324 325 326 325 325 325
354 354 353 354 353 353 351 349 347 346 345 333 326 327 329 329 334 339 338 337 337 336 335 335 335 334 334 334 336 338 338 336 336 337 338 336 333 333 333 332 332 334 334 330 328 327 326 324 323 323 322 322 322 323 323 323 323 324 324 323 322 321 320 318 318 318 322 325 321 318 317 320 320 319 318 321 322 323 324 325 325 323 322 323 323
355 354 353 353 352 351 350 348 347 346 345 330 325 325 327 328 331 336 337 338 337 336 336 336 334 333 333 334 335 338 339 343 341 336 336 335 333 331 331 333 333 331 328 328 329 332 330 326 324 323 323 323 323 324 326 326 327 324 323 322 321 320 320 318 318 318 319 322 319 316 315 318 319 319 319 321 322 323 324 325 324 324 323 322 322
355 354 353 352 351 349 348 348 346 346 346 328 324 323 325 326 328 333 336 338 338 337 336 336 334 333 334 333 334 335 336 338 336 335 334 333 332 330 330 330 332 335 332 327 325 325 328 329 326 324 326 327 325 326 329 328 325 323 321 319 318 318 317 317 318 318 319 322 318 317 315 317 319 319 318 320 323 323 324 324 323 323 322 321 320
353 352 351 350 350 349 349 348 346 346 347 324 321 321 322 323 326 334 339 340 339 338 337 335 334 334 335 335 335 334 334 335 335 335 333 332 331 331 331 331 332 332 333 334 334 334 331 329 328 328 328 329 328 328 328 328 326 323 322 319 319 318 317 318 318 319 319 321 320 318 313 316 318 317 318 320 322 322 323 322 323 322 321 320 319
353 352 351 350 349 348 349 348 346 343 333 318 320 320 320 321 327 338 339 338 337 335 334 335 335 335 336 336 334 334 334 334 334 333 335 332 331 330 330 330 331 332 333 334 330 332 336 334 332 330 329 329 328 329 327 323 320 320 322 321 318 316 315 313 312 315 316 319 320 317 314 314 315 315 315 317 316 314 316 316 318 319 318 318 318
351 350 350 349 349 348 347 345 339 333 328 320 318 317 318 320 328 338 337 336 334 332 331 332 334 337 337 336 335 335 335 334 332 325 329 337 330 330 329 328 330 331 331 333 328 324 324 323 321 321 320 318 317 316 315 316 319 318 315 313 312 314 312 310 312 312 313 316 317 318 315 314 315 313 312 313 313 312 312 313 314 316 316 316 316
350 350 349 347 347 347 346 341 337 332 329 320 315 314 317 321 329 335 334 333 331 331 332 334 335 336 339 342 340 335 334 332 327 324 325 333 329 328 327 329 330 329 330 331 332 329 325 322 320 319 318 318 317 316 316 315 315 316 314 312 314 313 312 312 310 312 314 316 317 319 311 310 311 310 309 309 311 310 311 310 312 313 316 314 314
347 346 347 347 345 345 344 340 330 331 329 319 312 314 317 320 331 334 332 330 328 329 331 333 335 336 337 340 342 338 334 331 323 321 322 329 328 327 327 328 328 328 327 325 326 324 324 324 323 324 323 324 325 323 325 322 320 321 318 316 316 314 313 313 314 314 312 314 318 313 308 307 308 309 309 307 305 308 310 311 312 312 313 315 316
Wind_Speed
5 4 3 3 2 4 5 5 5 5 3 3 3 1 1 3 4 4 4 3 1 1 2 3 3 4 3 3 1 1 1 8 6 6 5 5 5 7 12 12 11 12 11 11 12 12 12 13 13 13 12 12 11 10 10 11 10 10 10 10 11 11 11 11 11 11 10 10 10 10 8 8 10 9 6 9 8 8 8 8 8 7 7 7 6
5 4 3 3 2 3 4 4 5 4 4 4 2 2 3 3 4 3 3 2 2 2 2 4 4 3 1 1 1 1 0 1 7 7 5 5 5 5 13 12 12 12 12 12 11 12 12 12 13 13 13 12 11 11 11 10 10 11 11 11 11 11 10 11 12 12 12 11 11 10 11 11 11 10 10 9 8 9 9 9 8 8 7 7 7
5 3 3 4 2 2 4 4 4 5 5 3 3 3 4 4 4 3 2 1 4 4 5 4 3 2 1 5 4 3 1 1 1 7 6 6 6 5 8 14 12 12 12 12 12 12 13 12 13 12 12 10 10 11 9 8 10 12 13 13 14 14 13 12 11 13 12 12 11 11 11 11 11 12 12 11 10 11 11 9 9 8 8 8 8
5 4 4 3 3 4 3 2 2 2 4 5 4 3 4 4 4 3 1 1 2 4 3 5 3 0 3 2 3 3 2 2 2 2 9 6 6 6 5 6 11 11 10 10 11 12 12 12 12 13 11 9 11 11 10 9 9 10 12 13 13 13 13 13 13 13 12 12 11 11 11 11 11 11 12 13 13 12 11 10 10 9 9 9 9
5 6 5 5 3 3 3 3 3 3 4 5 4 4 4 4 3 1 0 1 3 5 5 2 2 3 3 1 2 2 2 4 5 2 8 6 6 5 4 4 4 9 9 9 10 10 11 12 11 12 13 12 12 11 12 13 13 13 12 11 9 10 12 14 14 12 11 11 11 11 11 11 11 11 11 11 11 11 11 11 10 10 10 10 10
5 3 3 5 5 4 4 4 4 4 4 4 5 4 5 4 2 2 0 1 2 4 5 3 1 3 0 2 1 1 2 3 4 1 8 7 6 6 5 5 5 5 5 9 8 8 9 10 10 10 11 14 12 12 12 13 14 13 12 11 10 9 6 5 7 9 10 11 11 11 12 11 11 11 11 11 11 11 11 11 11 11 11 11 11
5 4 3 4 5 4 3 4 3 3 5 4 4 3 4 5 3 3 1 1 2 4 2 2 3 4 2 1 1 2 3 4 3 4 5 6 6 6 5 5 5 4 4 4 6 6 6 7 8 9 11 12 13 13 14 14 14 14 14 13 12 10 9 9 7 6 9 12 11 11 11 12 12 12 12 12 12 12 12 12 11 12 12 12 12
5 5 4 3 4 4 5 4 4 4 5 4 4 4 4 4 2 3 1 2 2 3 3 4 3 2 3 0 1 0 1 3 3 4 4 7 7 6 6 6 5 4 5 4 4 4 6 8 7 9 9 12 12 13 13 13 14 14 15 12 11 11 12 10 8 7 6 7 8 10 11 12 13 12 12 12 12 12 12 12 12 12 12 12 12
5 5 5 4 4 5 4 4 4 4 4 4 4 3 3 3 2 2 2 2 3 1 3 1 3 1 1 4 1 1 3 2 2 2 2 3 3 6 6 7 6 8 5 4 4 3 4 5 6 6 8 7 10 8 8 11 12 14 13 14 13 13 13 12 9 8 9 9 8 8 9 11 12 12 13 13 13 12 13 13 13 13 13 13 13
6 5 5 4 3 4 5 5 4 5 4 4 4 2 2 3 2 2 2 2 2 0 2 3 1 2 2 3 2 1 0 1 0 1 2 2 2 4 6 6 6 5 5 5 4 4 3 4 4 5 7 7 7 10 12 11 12 12 13 14 13 14 13 11 10 10 11 10 10 9 9 8 8 9 9 11 12 13 13 13 14 14 14 14 14
5 5 4 3 3 4 5 4 4 5 5 4 4 2 1 2 2 2 2 3 2 1 2 1 3 1 2 3 1 1 1 0 1 1 3 2 1 7 6 5 6 5 6 5 4 3 3 2 2 1 1 5 8 8 8 9 10 12 13 13 14 14 14 14 12 12 12 12 11 11 11 10 9 8 9 10 10 11 13 13 15 14 15 14 14
5 5 4 4 3 3 5 5 5 5 5 4 2 2 3 3 3 2 2 2 1 3 2 2 1 0 1 1 2 3 1 1 1 2 2 1 1 6 5 4 5 5 6 5 5 4 4 2 2 2 1 2 4 5 5 7 9 10 11 12 13 14 14 13 13 13 13 14 14 12 13 13 11 11 11 11 12 12 12 13 13 14 16 16 15
4 4 5 4 3 3 5 5 5 5 5 5 4 4 4 3 2 2 1 0 1 1 3 3 1 2 2 2 3 3 1 1 2 3 3 2 3 7 6 6 5 6 5 6 5 5 4 3 3 2 2 3 2 3 5 4 6 8 10 9 10 12 13 12 12 12 13 13 13 13 13 13 14 14 13 13 12 13 13 13 12 13 15 15 15
5 5 4 4 4 5 5 5 5 5 4 4 3 3 3 3 3 1 2 3 2 2 2 4 1 1 1 3 2 2 2 1 3 3 3 2 2 6 5 6 6 7 7 8 6 5 4 3 3 3 2 3 3 2 2 2 3 5 5 6 8 10 10 10 11 11 12 12 12 13 13 13 14 15 14 13 14 13 12 12 12 12 13 15 16
6 6 5 5 4 5 4 4 4 4 4 3 3 3 4 4 4 4 2 0 2 2 3 2 2 1 1 1 1 1 2 3 2 3 2 6 5 7 6 7 7 7 7 6 6 5 5 4 4 4 4 3 3 3 3 4 3 4 5 3 0 3 5 7 8 8 9 10 10 11 10 11 12 14 14 14 14 14 14 13 12 12 12 13 14
6 5 5 5 5 5 4 5 5 4 5 5 4 4 4 3 3 3 3 2 0 1 2 3 2 3 2 1 1 1 0 2 2 3 2 5 6 7 7 6 6 5 6 7 7 6 6 5 4 4 5 4 3 3 4 2 4 4 3 2 4 5 2 2 3 3 4 5 5 5 7 8 9 11 13 14 14 15 15 15 14 13 13 14 14
6 5 5 5 5 5 5 5 5 5 6 6 6 6 5 5 5 5 3 3 2 0 0 3 3 4 5 2 2 2 0 2 1 1 2 4 5 6 6 6 5 6 6 7 7 6 6 5 4 4 7 7 4 4 4 3 3 2 2 3 4 3 3 3 2 3 3 3 2 0 2 4 5 7 9 11 11 13 14 14 13 15 15 15 15
6 6 6 5 6 6 6 6 6 6 6 7 6 6 6 6 5 6 4 2 4 2 2 1 5 4 4 3 4 3 1 2 4 1 4 2 6 7 6 6 5 6 4 5 7 6 5 5 4 4 6 8 7 6 5 5 3 3 2 1 4 3 2 1 1 1 0 1 2 2 2 3 3 4 5 6 8 9 10 11 12 13 13 14 15
6 7 7 7 7 7 7 7 7 6 5 5 5 7 7 6 4 4 5 4 4 3 3 1 1 1 3 4 3 1 4 1 0 0 2 4 3 3 2 4 5 5 5 5 6 6 4 5 5 4 5 7 7 6 6 6 6 7 7 6 5 4 3 3 1 2 2 2 3 3 3 3 4 5 5 5 6 6 7 8 8 9 11 12 14
7 7 8 8 7 7 8 7 7 6 5 6 6 4 4 3 5 6 5 5 5 5 2 3 2 0 2 3 1 3 2 2 1 3 2 0 4 2 1 1 1 3 7 5 6 6 6 4 4 4 4 6 7 6 6 6 6 6 5 9 8 7 6 4 4 4 3 3 3 3 3 4 4 4 5 6 6 6 6 5 5 6 8 9 10
9 9 8 8 8 7 8 8 8 7 6 6 5 4 6 7 6 5 5 4 4 3 3 2 2 2 2 2 3 3 2 0 2 2 1 1 1 1 2 2 1 2 2 4 4 5 6 6 4 5 6 4 7 7 6 6 6 6 7 11 10 9 8 7 7 6 5 5 4 4 4 4 4 5 5 5 5 5 6 6 6 6 6 6 8
8 8 8 8 8 8 8 9 9 8 6 7 5 5 6 6 6 6 4 4 2 3 4 3 2 1 2 3 2 1 2 1 2 2 1 2 1 1 2 4 2 0 4 7 5 5 5 5 4 5 7 6 6 7 6 6 6 5 7 13 11 11 10 9 9 8 7 6 6 6 6 6 6 6 6 6 6 6 6 6 7 7 7 7 8
8 7 8 9 9 8 8 7 7 8 8 6 5 6 6 6 6 5 5 5 3 3 2 2 3 2 2 3 4 3 4 2 4 3 3 1 1 0 1 0 2 1 1 3 4 5 5 5 5 5 5 7 6 7 7 7 7 7 12 13 12 12 11 10 9 9 8 8 8 7 7 7 7 7 8 7 7 7 7 7 7 8 8 8 8
8 7 8 10 9 9 8 7 7 7 7 6 5 7 7 6 6 6 5 5 5 4 3 3 3 3 3 2 3 3 3 3 5 5 5 4 4 2 2 1 2 0 1 2 1 5 6 6 6 5 6 6 7 7 8 8 8 14 11 13 13 13 12 11 11 10 10 9 8 9 9 9 8 8 8 8 8 8 8 8 8 8 8 8 8
8 9 9 11 9 10 9 8 7 6 6 5 4 7 6 6 6 6 6 6 6 5 5 4 4 4 4 3 2 2 4 4 1 4 5 5 6 3 1 2 2 1 0 2 1 1 3 5 5 4 7 6 5 6 6 8 7 12 12 9 14 12 12 13 12 12 12 11 11 11 11 10 10 9 8 8 9 9 9 9 9 9 9 8 8
10 11 11 11 10 10 9 8 7 6 6 6 5 5 7 6 6 7 6 6 5 5 5 4 3 4 4 4 2 3 0 2 3 4 3 4 2 2 1 2 1 1 1 0 1 0 2 2 3 4 5 5 5 5 6 6 5 11 14 8 11 13 13 13 13 13 13 13 13 13 12 12 12 11 11 11 10 11 11 10 10 10 10 9 9
10 11 10 11 11 10 8 8 8 7 6 6 5 4 6 6 6 7 6 6 6 6 4 4 4 3 4 3 3 2 5 2 4 5 4 4 5 4 4 1 2 3 1 1 0 1 4 3 2 4 5 6 5 5 5 4 5 8 11 7 6 13 13 13 13 14 14 15 15 15 14 13 13 13 12 12 12 11 12 11 11 11 11 10 10
9 9 11 10 10 10 9 7 9 8 7 6 6 5 6 6 6 6 6 5 7 6 6 5 5 4 4 4 4 5 4 4 5 6 6 6 5 4 5 5 5 1 2 2 1 2 3 2 3 3 5 5 4 4 5 6 5 8 10 6 6 8 13 14 14 15 15 15 15 15 16 15 15 14 13 13 13 13 12 12 13 13 13 12 12
9 8 10 8 10 10 10 8 9 9 7 7 7 7 6 6 6 5 7 7 7 8 7 7 5 5 4 5 5 5 4 3 3 4 5 5 6 6 5 6 5 3 1 2 2 2 3 0 0 2 1 4 5 5 5 6 7 6 4 6 6 6 9 14 15 15 15 15 15 15 16 16 16 16 15 15 15 15 14 14 14 14 14 14 13
9 9 8 8 10 11 10 9 9 8 8 7 8 8 7 7 7 6 6 6 6 6 6 6 6 4 3 3 4 3 3 4 4 3 4 5 5 6 6 5 6 6 5 4 4 3 3 2 2 1 2 2 2 4 4 5 8 8 5 5 6 6 10 13 14 15 15 15 15 15 16 16 16 16 16 16 15 16 15 15 15 14 14 14 14
10 9 9 8 10 10 10 10 9 9 8 8 8 8 8 7 7 7 6 5 7 6 6 6 6 5 4 3 3 3 4 4 4 5 4 5 6 5 5 5 5 5 6 5 2 3 3 3 2 1 1 2 2 3 3 4 6 7 6 6 6 9 13 11 13 13 13 14 14 15 15 16 16 17 17 17 17 17 16 17 17 17 16 16 14
11 10 10 9 10 11 10 11 10 9 9 9 10 9 8 8 7 7 7 6 6 7 7 6 6 6 5 5 5 5 5 5 5 5 5 5 6 6 6 6 6 6 5 5 5 6 3 3 3 4 4 3 3 3 4 3 5 10 7 7 7 10 8 7 11 12 11 12 14 15 16 16 17 18 18 19 18 18 17 15 17 17 17 18 17
11 11 11 11 10 10 11 11 11 10 10 10 10 9 9 8 8 8 7 7 7 6 7 8 6 6 7 6 6 7 6 6 6 6 6 6 6 6 6 6 5 5 6 6 5 6 3 4 4 4 3 3 4 3 5 6 5 4 5 5 6 6 6 6 6 10 12 13 13 14 15 16 17 18 19 19 18 18 18 18 18 18 18 18 18
11 12 12 11 10 10 11 11 11 11 11 12 11 10 10 10 9 8 8 9 8 8 6 7 8 6 7 8 7 7 6 7 5 6 6 6 6 6 6 6 6 6 6 6 6 4 6 2 3 3 3 3 4 3 5 6 4 3 4 5 5 6 6 6 6 7 12 13 14 14 14 15 16 17 17 17 17 18 19 19 19 19 19 19 18
11 12 12 12 11 11 10 11 11 12 12 12 11 11 11 11 11 9 9 10 10 9 10 9 8 6 7 8 8 6 4 5 5 4 4 4 3 5 5 5 5 6 5 6 4 4 5 5 4 3 3 3 5 5 4 4 4 4 5 5 6 5 5 6 6 6 9 12 13 14 13 14 14 16 16 17 18 18 19 19 19 19 19 18 18
12 11 12 12 12 12 12 12 11 12 12 12 11 11 12 12 11 11 10 9 10 10 9 9 8 7 8 7 7 7 5 5 4 4 3 3 3 3 4 4 5 6 5 5 6 5 4 4 2 3 3 3 4 3 3 3 5 5 6 6 5 6 7 6 6 6 8 13 14 14 14 14 14 15 16 16 17 17 18 18 18 18 18 18 18
13 11 10 11 12 12 13 13 13 12 13 12 12 12 11 11 12 11 10 9 9 10 10 10 9 9 9 8 7 6 5 5 4 4 3 4 3 3 4 4 5 5 4 4 4 3 3 3 4 2 2 2 3 4 3 5 6 5 4 5 6 7 7 7 6 7 10 14 14 15 14 14 15 16 16 17 17 18 18 18 17 17 17 18 18
13 12 12 11 12 13 13 13 13 12 12 12 12 12 12 11 11 11 10 10 9 9 10 10 10 10 9 7 6 6 5 6 5 4 3 4 4 4 5 4 5 4 4 3 3 2 2 3 3 5 3 4 4 4 4 5 6 6 5 5 5 5 5 6 6 6 5 5 4 6 9 10 12 15 15 15 16 17 17 18 18 18 18 18 19
13 13 13 13 11 12 12 11 11 11 11 11 11 11 11 11 11 11 11 10 11 11 8 8 9 8 7 6 6 5 5 5 5 4 3 3 5 6 6 6 5 4 5 4 4 4 3 3 4 5 6 5 5 6 5 6 6 5 5 6 7 5 4 6 6 4 4 5 6 9 9 9 11 10 10 12 14 16 17 18 18 19 19 19 19
14 13 13 13 11 10 10 10 10 9 9 9 9 10 9 10 11 10 11 12 12 8 7 6 6 6 5 5 5 5 5 4 4 3 3 4 4 4 4 4 5 4 5 5 4 3 3 4 6 6 4 6 4 4 3 2 3 3 4 5 6 6 6 2 3 4 3 3 5 5 6 8 9 10 12 13 14 16 17 16 16 17 19 19 20
11 11 9 10 10 9 9 9 8 8 9 9 9 9 10 10 11 11 12 10 7 7 7 6 5 5 5 5 5 4 4 5 6 5 4 3 2 2 0 0 1 2 1 2 3 2 1 2 5 4 4 6 6 5 5 4 4 5 3 1 2 3 4 5 5 4 4 5 5 5 5 6 7 6 6 6 6 8 8 10 10 14 15 16 18
11 9 9 9 11 11 10 9 9 9 9 8 11 16 14 11 11 11 8 8 10 10 8 6 4 4 5 5 5 7 5 5 3 5 6 5 4 4 4 3 3 2 1 0 1 2 3 4 5 5 6 7 7 5 5 4 3 2 3 2 3 4 5 5 5 4 4 5 5 5 5 4 5 5 4 5 5 6 6 7 8 10 13 15 16
11 9 9 9 11 10 11 11 11 10 10 10 16 16 17 17 13 10 10 12 11 8 6 7 7 6 5 5 4 6 5 5 4 5 5 6 7 7 8 8 6 6 5 5 4 3 3 4 5 5 6 8 8 4 4 5 3 3 2 2 3 3 4 5 8 6 2 3 3 5 8 6 6 8 7 7 8 8 8 9 13 15 16 17 17
10 9 10 10 10 10 10 11 12 11 10 13 17 18 19 19 16 11 10 9 8 7 7 8 8 8 8 7 5 4 4 5 5 4 5 7 8 8 9 8 9 8 7 6 5 4 3 5 6 7 6 7 6 5 5 3 5 3 3 2 3 4 5 5 5 7 3 5 9 9 10 6 6 7 8 8 8 8 9 12 15 15 16 17 18
10 11 10 9 9 10 10 11 11 11 10 14 18 20 20 20 19 13 8 8 7 8 9 9 9 8 6 6 6 5 4 8 6 4 5 5 7 9 7 8 8 9 9 10 9 8 5 5 6 8 8 6 5 7 6 5 2 3 3 3 3 4 4 5 6 6 7 4 6 8 10 7 5 7 8 8 8 8 9 11 15 16 17 17 17
10 9 9 9 9 10 10 11 11 11 12 15 20 20 20 19 18 14 8 7 8 9 9 9 9 9 8 7 7 6 4 4 4 4 4 5 4 3 5 5 6 6 8 10 11 12 9 7 7 8 8 5 8 7 5 3 3 5 4 4 3 4 5 7 7 8 8 5 7 8 9 7 6 7 8 8 7 8 8 10 14 15 16 15 15
9 9 9 8 8 10 11 11 11 12 10 15 19 19 19 17 15 13 8 8 9 9 9 11 10 9 8 7 7 7 5 4 5 6 5 5 4 4 4 4 4 5 5 5 5 5 5 7 9 10 10 9 9 8 6 4 4 3 3 4 5 5 6 4 5 6 7 7 8 5 9 6 4 5 6 7 6 8 7 8 10 11 11 11 11
7 8 7 8 9 9 10 10 8 5 5 15 16 17 16 16 18 9 8 9 9 9 9 10 9 8 7 6 6 5 5 6 8 10 8 4 4 5 6 6 6 6 6 5 5 5 7 7 8 9 8 6 6 4 2 3 2 3 3 2 2 3 4 5 7 6 6 7 7 7 7 7 2 6 5 4 4 5 6 6 7 10 11 12 13
9 9 9 8 7 6 4 4 6 5 5 12 18 18 18 18 14 9 9 9 8 10 9 8 7 6 5 5 6 6 5 6 8 10 10 9 6 7 6 6 5 4 5 4 6 11 14 14 13 10 8 6 6 5 4 4 4 5 3 3 6 5 5 7 8 6 7 5 4 5 5 8 3 4 6 4 4 6 7 6 5 7 11 13 14
9 7 6 5 4 5 6 7 8 8 6 9 14 17 19 20 15 10 9 9 9 9 7 5 6 5 7 12 8 6 7 7 10 10 11 9 6 6 5 5 5 5 5 4 4 1 3 4 3 3 3 5 5 6 6 8 11 6 1 6 7 4 6 7 9 8 7 5 6 3 5 4 5 4 7 5 5 3 4 4 7 9 11 11 14
6 5 5 6 5 5 7 8 11 11 7 7 12 17 18 18 13 9 9 8 9 7 7 6 5 6 6 9 13 9 8 8 10 9 9 8 6 6 5 5 5 5 1 2 2 3 4 4 3 3 3 5 3 4 5 10 11 8 4 6 6 6 8 8 7 7 7 3 2 5 8 6 8 4 6 9 9 6 3 5 6 7 7 7 8
Wind_Direction
195 188 184 184 189 133 160 178 186 201 158 202 220 272 32 58 61 60 49 28 93 269 292 288 285 300 221 198 209 316 267 153 178 182 182 171 174 194 194 197 192 185 184 188 187 186 197 195 194 195 196 192 189 190 190 193 194 198 200 196 195 200 198 202 206 206 207 205 204 210 203 194 186 217 225 253 233 218 221 223 227 225 231 222 217
194 191 178 216 162 190 183 172 191 185 164 198 174 131 96 76 64 73 65 23 315 276 310 304 331 336 31 217 268 222 134 104 160 180 174 163 170 181 196 195 193 186 185 188 191 188 194 201 197 194 198 194 190 188 192 194 204 201 202 198 199 200 202 208 203 207 209 212 209 207 204 202 190 202 206 222 241 243 227 228 229 234 235 235 233
177 186 194 205 188 162 162 169 179 187 161 138 139 129 118 102 92 83 80 5 298 301 308 299 317 294 337 47 18 308 343 199 41 142 178 170 161 180 196 193 191 188 186 186 187 191 190 197 197 196 199 195 193 193 189 196 213 206 209 202 202 202 197 204 204 208 208 211 213 211 210 209 201 201 199 208 220 235 233 232 233 237 238 240 242
169 184 185 196 177 169 160 133 148 122 136 134 117 102 91 95 104 120 151 208 287 297 284 277 252 241 62 20 0 13 325 341 353 124 178 150 160 178 184 183 191 187 188 190 193 191 193 195 199 198 190 188 198 184 187 206 221 228 223 215 209 209 201 205 208 210 210 211 214 214 214 215 211 210 207 208 216 224 227 230 236 237 239 241 244
185 178 171 172 163 127 102 101 122 126 112 114 109 102 102 99 82 115 128 332 321 305 291 201 147 56 53 322 352 353 303 347 327 17 136 158 160 146 162 176 177 183 188 193 201 201 198 197 201 199 189 187 193 184 185 198 212 223 230 222 236 233 221 211 207 209 212 216 218 220 221 219 219 216 215 217 218 223 225 227 232 238 242 243 243
160 159 150 148 148 140 145 138 118 116 115 117 118 119 125 118 126 80 200 262 281 285 285 44 147 116 236 267 277 294 291 8 343 319 142 153 153 151 169 169 173 174 185 189 195 206 205 206 203 205 197 194 186 191 196 205 211 215 223 221 221 233 247 256 249 223 214 220 221 220 223 225 225 225 223 222 225 226 227 228 228 230 234 240 241
160 154 170 160 151 150 145 139 127 122 118 121 115 113 123 132 151 147 224 281 267 274 303 333 211 154 221 241 267 308 3 22 347 62 95 128 150 160 162 156 165 184 189 170 185 194 204 211 212 204 197 193 196 197 201 208 215 215 214 216 218 222 225 225 224 229 228 226 225 227 227 226 227 229 229 229 228 228 231 232 233 233 235 236 238
155 162 178 193 167 161 152 143 145 127 112 109 116 114 116 120 151 147 156 260 273 310 336 310 245 140 232 41 302 276 360 44 358 34 97 120 137 153 165 162 158 173 187 163 170 187 193 201 201 219 208 198 203 201 204 206 213 214 217 219 218 218 225 223 220 226 240 249 251 242 237 234 233 233 233 233 233 232 233 233 234 235 237 237 236
161 169 172 189 169 148 155 146 138 131 119 122 109 123 132 144 186 220 179 230 276 286 322 338 27 31 359 75 30 48 65 59 46 26 62 104 124 137 136 145 165 184 165 156 169 167 180 194 208 210 227 199 204 210 221 214 210 218 221 226 229 229 228 226 218 221 229 238 247 261 264 254 247 241 238 236 236 237 238 237 236 236 237 239 238
171 173 182 187 173 154 142 147 146 129 122 118 129 152 134 129 208 241 200 231 228 22 320 331 15 329 324 84 137 99 109 116 274 79 36 314 130 128 140 132 118 122 129 139 154 151 162 175 182 205 211 187 179 190 201 208 205 217 221 226 230 234 236 237 230 227 233 242 244 245 256 267 263 257 256 253 255 254 249 248 246 241 237 238 238
171 173 174 188 164 132 147 151 138 130 131 133 143 144 149 195 191 261 263 211 177 228 254 259 300 339 353 151 134 209 235 185 86 341 280 282 94 158 144 129 128 133 128 136 130 111 116 131 148 140 165 180 183 189 201 200 208 219 218 221 230 233 241 244 240 235 235 239 243 246 248 255 259 258 251 253 249 252 258 254 250 245 245 238 237
179 172 165 171 170 158 145 146 144 139 135 131 137 163 193 208 217 229 260 263 250 220 221 289 304 56 34 4 239 207 284 321 293 301 325 297 103 113 103 110 126 133 136 133 120 127 131 133 127 149 107 125 165 160 184 208 208 223 223 224 226 233 239 242 242 243 243 239 240 243 248 251 255 252 250 244 242 245 249 254 254 258 250 243 237
172 168 179 171 153 125 120 138 149 145 142 160 180 187 191 189 209 187 147 99 301 267 247 144 68 355 351 2 315 253 197 194 290 297 293 349 118 112 125 109 100 95 113 118 128 130 128 127 128 123 126 119 104 146 170 169 197 220 225 225 220 231 239 241 244 245 245 244 243 244 243 246 248 248 249 252 252 242 239 244 249 251 254 252 248
174 177 177 168 151 135 139 148 144 140 151 166 180 187 191 204 174 91 214 167 228 218 235 105 32 92 18 331 334 336 316 290 281 253 239 79 141 114 111 107 101 100 108 112 121 130 131 144 152 140 142 119 109 97 121 164 186 205 228 226 232 226 233 238 239 240 239 240 240 242 244 242 237 237 238 243 249 251 244 240 242 246 252 255 250
180 167 168 167 151 139 146 149 150 151 147 174 189 198 205 195 158 151 259 351 219 219 178 125 158 137 75 81 344 102 325 357 314 294 246 140 168 128 122 115 112 116 121 116 120 119 120 120 123 141 159 130 134 112 97 104 126 115 55 50 293 231 246 257 251 254 253 252 249 252 255 254 249 245 245 243 246 248 250 248 245 245 248 252 253
165 161 166 154 149 151 152 158 168 165 163 178 188 196 178 164 158 159 134 77 17 295 156 126 129 103 25 146 207 125 56 312 289 286 7 144 142 126 125 126 129 111 111 115 126 128 132 130 118 120 140 148 138 123 107 127 121 114 111 80 48 32 356 248 235 248 261 259 252 252 251 253 251 248 247 250 249 248 248 249 247 244 248 252 251
160 163 163 157 156 152 163 172 169 176 178 181 183 188 178 184 162 145 148 158 117 311 36 110 145 156 141 86 26 39 258 260 324 305 23 69 101 122 132 144 138 134 131 132 132 138 144 143 148 132 119 148 143 142 147 118 109 115 105 99 73 57 37 11 324 291 304 316 300 308 253 254 257 259 261 262 261 256 255 252 249 253 249 250 253
163 169 170 165 167 166 169 174 181 185 186 187 181 184 177 183 178 159 158 132 145 110 13 194 169 138 132 154 166 168 175 271 72 323 318 79 122 151 159 143 151 141 130 132 132 150 148 143 152 140 128 140 151 154 149 142 145 131 118 146 128 124 103 58 41 139 256 287 296 298 293 301 305 293 282 279 278 272 262 258 257 252 258 258 254
172 173 178 176 176 174 172 175 182 180 178 180 184 181 183 176 172 124 131 140 108 92 96 129 21 107 152 160 161 158 157 87 235 62 11 321 51 144 132 159 168 133 140 152 146 142 152 152 154 151 136 140 151 156 150 160 161 164 173 171 161 154 153 164 182 214 228 252 266 271 265 268 273 288 300 304 300 296 289 277 265 257 251 253 259
173 180 181 176 178 167 168 170 174 186 176 182 181 185 173 140 145 144 130 129 127 131 168 93 120 269 185 173 176 168 105 93 143 149 167 137 319 348 113 162 97 159 161 159 158 151 151 147 147 143 154 145 149 154 159 164 168 173 173 171 173 175 181 186 200 213 227 238 244 258 264 269 272 276 285 287 286 292 299 306 306 292 282 272 263
176 175 178 171 171 163 164 170 177 190 184 193 192 162 152 139 136 129 132 144 136 152 113 130 120 131 94 97 73 84 104 157 166 105 127 104 291 13 335 354 109 98 140 159 165 159 156 160 179 150 171 160 161 158 162 167 177 175 178 181 181 184 187 194 201 213 217 227 238 242 253 259 267 267 274 278 280 282 287 291 290 293 295 286 272
171 175 165 163 164 165 171 179 182 187 184 196 180 154 151 148 150 148 148 148 169 134 145 175 164 169 135 151 113 90 53 39 64 77 55 117 161 281 94 88 69 280 131 173 178 175 163 166 173 161 165 181 172 161 167 182 183 182 191 187 188 191 193 199 205 210 216 220 226 235 241 245 248 256 258 264 268 272 275 278 282 281 281 281 285
164 175 165 161 164 173 182 186 181 178 190 188 186 160 173 157 153 150 148 151 163 174 139 155 155 133 121 144 169 158 166 171 184 172 144 141 85 345 138 95 148 59 295 193 171 176 174 175 179 186 171 174 189 163 178 186 188 191 193 191 192 194 199 207 212 219 219 217 225 234 239 241 246 248 253 255 261 265 266 268 271 274 274 277 280
163 168 168 166 167 177 187 188 187 177 189 185 166 177 171 158 153 156 157 157 165 161 160 161 164 157 203 172 181 183 182 168 200 162 151 177 146 189 156 195 44 344 282 31 90 146 175 186 206 171 191 182 187 184 174 180 192 198 195 194 195 198 200 206 216 223 228 227 230 238 242 246 249 253 256 261 265 268 269 268 267 269 272 276 277
168 173 178 176 173 177 184 190 191 179 186 182 166 157 162 161 157 158 160 158 168 160 175 187 180 175 204 221 170 141 254 229 257 153 159 161 137 158 235 146 154 230 276 113 195 306 205 187 195 181 180 196 196 184 178 177 186 198 193 204 199 202 202 207 213 221 222 223 227 232 239 243 248 248 250 254 257 261 265 268 268 266 268 270 273
174 183 185 180 179 180 181 187 185 176 177 176 174 149 164 160 162 158 166 171 159 158 174 192 187 198 175 191 122 131 126 69 85 99 129 107 87 135 121 13 82 156 274 62 216 50 306 277 218 200 185 202 191 187 188 184 185 197 197 194 205 203 207 210 216 222 223 224 226 228 233 238 240 240 242 243 247 252 258 260 263 265 266 265 266
185 189 185 183 180 180 180 175 183 178 169 171 175 145 149 156 154 166 161 169 167 164 184 192 209 208 189 183 178 161 133 130 101 87 97 113 142 154 123 94 358 12 355 299 330 204 229 291 219 214 198 193 199 190 193 203 208 211 215 195 204 210 211 215 221 225 226 227 228 230 233 237 241 242 242 242 243 246 249 256 260 261 260 260 261
190 184 189 179 179 178 183 171 177 179 171 162 165 158 151 147 147 161 171 176 171 174 188 197 209 209 200 181 156 174 175 153 147 139 128 136 141 147 128 133 137 266 329 325 338 290 243 230 305 228 200 200 184 175 193 199 217 226 216 193 206 215 217 219 223 229 231 230 229 231 234 236 239 242 243 243 244 244 245 246 250 255 258 258 257
190 184 185 179 177 177 180 172 173 179 170 165 159 162 160 155 157 157 177 176 166 177 183 192 214 216 202 183 179 182 182 135 130 139 148 149 154 148 147 147 154 143 188 251 269 232 295 325 347 300 175 175 184 196 190 206 221 220 207 197 207 212 222 224 227 231 236 239 235 233 235 237 240 242 243 244 245 245 244 244 245 247 250 253 255
187 190 181 174 178 178 178 176 172 175 174 168 166 160 158 164 169 172 182 168 173 176 183 182 198 198 195 195 198 189 163 152 177 171 154 163 151 155 155 150 147 162 177 200 253 218 261 290 194 247 330 325 217 210 207 221 225 216 208 210 211 222 226 227 225 226 229 234 237 236 236 237 239 242 244 245 243 243 243 244 247 248 248 249 251
186 184 185 176 177 180 177 179 175 177 171 170 170 167 162 167 172 177 187 167 173 187 195 187 201 185 183 162 167 171 163 174 168 177 168 161 164 148 149 149 161 171 181 183 205 278 204 240 285 239 212 247 245 255 258 251 244 230 224 218 222 226 233 242 245 240 233 233 234 236 237 237 238 240 243 245 247 248 247 248 249 251 249 251 250
186 183 185 183 177 178 180 179 180 177 174 175 174 170 168 173 174 180 188 180 178 189 200 199 192 182 176 170 180 170 182 173 175 177 183 172 159 157 162 170 177 176 173 178 205 241 251 234 247 280 294 288 303 310 292 267 244 237 230 232 235 237 242 246 253 254 248 233 229 233 236 237 238 239 241 243 245 247 250 248 251 249 249 251 251
183 183 185 187 180 177 181 183 183 181 178 179 178 172 171 176 179 181 186 189 192 195 191 204 200 191 193 199 201 196 184 180 189 189 178 176 170 176 179 172 182 182 172 187 204 247 283 244 231 241 244 253 287 259 274 282 289 274 253 246 244 240 239 243 253 261 262 261 255 244 238 237 237 239 242 244 246 248 250 251 252 254 254 253 251
182 185 185 188 187 179 179 186 186 184 182 180 181 175 175 178 181 183 188 192 198 201 195 196 202 197 197 203 209 206 191 184 184 186 189 180 176 174 185 179 189 192 186 173 208 222 251 286 265 267 265 212 247 248 248 262 271 275 274 263 249 236 239 241 245 246 248 248 250 253 252 247 243 243 244 246 248 248 248 248 249 249 250 251 251
184 188 188 188 188 187 184 186 186 187 185 182 182 181 180 181 184 186 189 194 198 202 201 202 199 192 193 199 201 195 185 183 193 194 196 197 184 177 192 190 194 196 187 185 177 213 238 247 214 241 233 236 222 249 245 244 257 257 261 264 258 251 239 235 238 245 245 246 249 250 249 248 250 250 249 247 247 248 248 247 247 247 247 249 249
189 192 189 189 188 190 193 191 188 186 187 185 182 184 184 184 185 188 190 195 202 204 205 202 200 191 191 189 195 189 185 186 191 191 202 198 194 203 209 202 179 181 184 184 194 201 222 259 234 217 232 234 256 244 232 243 248 258 247 255 257 258 257 253 246 247 250 249 251 252 253 252 249 246 246 247 246 246 246 247 247 246 247 247 248
194 191 192 189 190 192 196 195 193 189 188 186 184 185 186 186 187 189 192 194 201 205 206 205 205 200 199 194 194 190 184 184 186 190 198 206 201 204 222 220 199 188 183 185 195 199 220 257 278 249 231 253 256 271 263 272 271 254 246 242 247 248 254 250 249 249 252 254 254 253 252 255 256 255 251 249 250 251 252 251 249 249 249 250 250
193 194 192 192 193 196 198 196 196 194 188 189 187 185 185 185 187 190 193 197 201 205 206 205 206 205 202 192 187 186 182 184 188 177 177 202 211 217 224 226 218 188 162 164 174 150 148 222 247 284 270 265 279 258 249 236 253 271 273 266 268 261 253 262 248 242 237 233 236 244 253 256 258 258 258 255 254 255 257 259 259 257 254 253 253
195 195 195 195 197 196 197 195 195 193 190 189 189 186 184 184 186 189 195 200 208 211 205 198 202 198 189 184 184 178 177 177 169 168 176 209 217 220 212 211 207 179 180 187 188 179 203 256 279 261 269 259 240 267 257 233 239 238 256 285 288 272 250 244 265 265 265 261 252 251 255 259 263 262 255 252 251 253 253 253 253 255 257 257 256
200 198 195 195 195 195 195 196 193 187 187 189 190 189 182 182 185 192 195 204 209 211 210 205 192 186 178 181 178 175 169 168 161 172 180 216 226 228 222 201 192 190 194 184 165 176 194 216 232 258 254 268 268 246 266 277 274 284 243 232 258 280 290 271 239 267 274 263 276 282 279 280 278 273 271 268 264 260 256 256 256 255 256 256 255
204 200 192 186 186 193 190 187 183 181 186 192 191 187 183 182 188 195 200 199 202 210 217 205 188 172 169 163 158 153 162 165 171 186 201 174 164 172 107 106 205 209 189 143 149 156 193 234 270 262 269 271 260 264 269 254 246 248 246 237 263 275 290 306 297 276 255 278 283 279 275 271 279 276 275 277 277 276 270 261 261 261 259 257 257
198 192 189 181 186 186 182 179 179 182 188 194 191 185 186 184 188 202 188 188 199 206 195 177 164 148 149 137 122 141 174 186 197 190 158 155 167 162 161 136 127 113 134 144 193 200 219 245 258 265 270 264 262 249 249 245 243 275 319 360 319 305 314 299 291 273 287 286 291 290 284 287 281 285 297 293 283 278 280 276 269 267 266 261 255
189 186 183 181 185 181 180 179 183 188 191 195 185 182 186 188 193 189 186 196 199 197 170 160 147 145 116 112 143 185 174 157 152 167 167 175 184 177 181 183 179 184 200 210 229 212 224 246 252 251 250 263 266 255 252 258 252 248 226 242 264 296 300 304 301 301 299 339 316 297 288 279 291 293 292 284 280 275 269 265 264 264 264 264 263
181 178 185 183 176 174 178 181 186 191 196 188 180 182 186 191 189 189 194 189 188 174 158 147 144 136 153 155 174 179 168 166 162 157 175 188 191 201 202 195 199 204 201 202 221 232 223 236 249 248 253 256 276 284 275 276 263 239 240 235 249 265 272 269 264 274 277 327 298 293 286 289 288 282 279 270 268 264 264 263 264 263 263 265 267
170 179 185 168 170 170 174 180 191 194 198 184 181 184 187 191 186 177 181 180 159 164 162 152 146 142 151 168 173 175 178 174 161 170 183 204 215 218 213 210 207 192 197 214 212 215 214 228 244 260 252 263 268 262 254 244 196 237 253 258 249 244 244 258 262 277 279 264 280 279 278 278 269 268 262 259 260 264 268 268 265 265 266 267 266
169 171 170 163 161 169 175 183 191 195 199 184 181 181 186 187 181 168 176 162 159 158 155 145 145 166 174 178 176 175 171 165 179 196 211 218 223 223 228 233 237 227 209 207 214 222 223 227 234 250 260 240 243 250 241 226 231 244 230 252 254 273 264 259 263 263 271 266 262 279 280 269 244 249 255 258 256 264 260 254 257 261 265 270 279
156 160 159 155 161 170 179 185 191 196 199 171 176 178 183 178 165 162 176 161 157 154 150 152 166 174 175 178 175 169 169 190 208 205 211 218 222 231 236 251 255 253 245 238 221 209 211 226 229 238 251 253 251 252 258 238 220 209 196 226 237 246 260 273 286 273 282 275 267 258 271 268 223 254 261 266 263 267 277 281 278 275 277 279 279
152 154 161 163 172 177 181 180 178 164 132 160 167 172 169 163 166 157 153 157 151 148 149 157 166 170 167 166 164 165 186 206 222 214 208 201 216 228 234 239 245 247 253 251 253 250 248 236 221 225 240 265 276 261 219 172 207 252 271 283 294 268 278 290 276 280 274 269 246 249 269 283 234 270 297 299 309 302 298 296 291 293 295 297 298
160 166 172 178 178 176 158 123 107 113 153 173 170 171 164 159 157 160 154 149 144 143 153 156 151 149 148 157 163 178 198 215 226 211 212 206 213 219 227 239 251 267 270 271 240 241 246 253 264 278 269 238 199 182 189 220 216 221 226 301 288 277 287 286 281 280 273 277 267 244 266 299 341 327 311 294 295 291 291 284 285 290 292 294 294
164 168 160 154 144 144 150 136 143 148 168 196 174 162 160 162 154 149 149 146 147 140 136 142 140 147 162 172 180 191 202 219 229 215 208 208 211 218 225 238 250 255 265 271 278 249 200 182 179 196 196 231 255 264 252 250 260 270 222 262 263 280 274 263 272 275 287 296 286 339 349 291 324 326 313 293 283 251 276 290 292 288 287 283 279
114 115 128 129 104 105 129 143 151 146 159 177 178 161 154 148 143 143 143 137 133 138 140 142 151 156 179 194 199 196 204 222 228 223 212 204 212 213 217 227 238 251 267 15 350 335 346 359 350 2 351 346 322 297 282 277 268 260 214 235 261 257 264 271 279 298 298 274 263 36 337 319 328 326 345 322 308 297 273 265 271 276 277 276 273